Simultaneous Nadir Overpasses (SNOs) Predictions

Prediction of SNOs between GOES-14 and AQUA Satellite Orbit:

Table of predicted SNOs for the next 14.0 days since TLE Epoch: 2/8/2020
Index Date Time (GOES-14) GOES-14 Lat,Lon AQUA Lat,Lon Distance(km) Time Diff (sec)
1 02/09/2020 20:17:55 -0.04,-104.04 0.62,-101.00 346.22 80
2 02/10/2020 08:39:11 0.04,-104.27 0.46,-106.16 215.07 80
3 02/12/2020 08:29:42 0.04,-104.27 -0.21,-103.21 120.47 80
4 02/12/2020 20:51:06 -0.04,-104.04 -0.94,-108.40 494.41 80
5 02/14/2020 08:17:32 0.04,-104.27 -0.82,-100.26 456.12 80
6 02/14/2020 20:38:56 -0.04,-104.04 -0.32,-105.44 158.87 80
7 02/16/2020 20:24:06 -0.05,-104.04 0.30,-102.49 176.68 80
8 02/17/2020 08:45:22 0.05,-104.26 0.80,-107.64 385.92 80
9 02/19/2020 08:33:12 0.06,-104.25 0.18,-104.69 50.23 80
10 02/21/2020 08:23:43 0.06,-104.25 -0.50,-101.75 285.82 80
11 02/21/2020 20:45:06 -0.06,-104.04 -0.68,-106.92 327.36 80




NCC Satellite Simultaneous Nadir Overpasses (SNOs) Prediction Service
